[[{"header":{"parameterUnit":"m.s-1","parameterCategory":1,"la1":30.2992,"la2":30.254,"lo1":-89.0895,"lo2":-89.0443,"dy":0.0025,"dx":0.0025,"nx":19,"ny":19,"refTime":"2026-05-06T21:00:00:Z","depth":0,"parameterNumber":2,"parameterNumberName":"U-component_of_WINDS"},"data":[0,0,0,0.8417,0.8416,0.8357,0.8357,0.83,0.83,0,0,0,0,0,0,0,0,0,0,0,0.8446,0.8446,0.8417,0.8416,0.8357,0.8357,0.83,0.83,0,0,0,0,0,0,0,0,0,0,0,0.8446,0.8446,0.8446,0.8416,0.8357,0.8357,0.83,0.8338,0,0,0,0,0,0,0,0,0,0,0.8392,0.843,0.8446,0.8446,0.8416,0.8358,0.8357,0.8339,0.8335,0.8334,0,0.8337,0,0.8318,0.8297,0.8297,0,0,0,0.8407,0.8433,0.8407,0.8446,0.8415,0.8358,0.8381,0.8337,0.8333,0.8329,0.8336,0.8334,0.8317,0.8297,0.8296,0.8321,0.8321,0,0,0.841,0.8442,0.841,0.8405,0.8416,0.8383,0.838,0.8334,0.8343,0.8336,0.8332,0.8316,0.8296,0.8296,0.832,0.8321,0,0,0,0.8426,0.8444,0.8419,0.8408,0.8396,0.8382,0.8378,0.8345,0.8334,0.8331,0.8315,0.8296,0.8296,0.832,0.832,0.8377,0,0,0,0.8427,0.8453,0.8421,0.8439,0.8397,0.837,0.839,0.8338,0.8331,0.8315,0.8296,0.8295,0.8319,0.832,0.8374,0.8398,0,0,0,0.8446,0.8455,0.8451,0.8441,0.8417,0.837,0.8356,0.8335,0.8322,0.8297,0.8295,0.8318,0.832,0.8371,0.8394,0.8413,0,0,0,0.8475,0.8502,0.8452,0.8476,0.8418,0.8406,0.8356,0.8345,0.833,0.8296,0.8319,0.832,0.837,0.8391,0.841,0.8434,0.8447,0,0,0.8527,0.851,0.8521,0.8475,0.8479,0.8412,0.8424,0.8381,0.835,0.8332,0.8332,0.8375,0.8393,0.8412,0.8511,0.8521,0,0,0,0.8548,0.8557,0.8551,0.8538,0.8506,0.848,0.8431,0.8415,0.8398,0.8347,0.8386,0.8396,0.8406,0.8416,0.8425,0.8431,0.8326,0.8326,0.8326,0.8666,0.8624,0.864,0.8592,0.858,0.8529,0.8515,0.8484,0.8446,0.8456,0.845,0.8515,0.8528,0.8535,0.8541,0.846,0.846,0.846,0.846,0.8737,0.8742,0.869,0.8687,0.8643,0.8639,0.8591,0.8564,0.8553,0.8516,0.8523,0.8486,0.8548,0.8551,0.8464,0.8464,0.8463,0.8463,0.8462,0.8809,0.8804,0.8784,0.8761,0.8747,0.8697,0.8689,0.8649,0.8611,0.8617,0.8606,0.8605,0.8598,0.8615,0.8615,0.8615,0.8616,0.8616,0.8616,0.8892,0.8867,0.8866,0.8833,0.8819,0.8796,0.8744,0.8729,0.8702,0.8673,0.8672,0.8633,0.8562,0.8544,0.8619,0.8619,0.8618,0.8618,0.8618,0.8979,0.8952,0.8951,0.8937,0.8894,0.8883,0.8832,0.8804,0.8785,0.8783,0.8741,0.8695,0.8675,0.8667,0.8653,0.8751,0.8751,0.8751,0.8751,0.9039,0.9025,0.9013,0.8993,0.8969,0.8922,0.892,0.888,0.8834,0.882,0.88,0.8777,0.8771,0.8754,0.8744,0.873,0.8846,0.8846,0.8846,0.9089,0.9071,0.9077,0.9033,0.8996,0.8966,0.8962,0.894,0.8883,0.8849,0.8807,0.8803,0.8766,0.8756,0.8722,0.8708,0.8681,0,0]},{"header":{"parameterUnit":"m.s-1","parameterCategory":1,"la1":30.2992,"la2":30.254,"lo1":-89.0895,"lo2":-89.0443,"dy":0.0025,"dx":0.0025,"nx":19,"ny":19,"refTime":"2026-05-06T21:00:00:Z","depth":0,"parameterNumber":3,"parameterNumberName":"V-component_of_WINDS"},"data":[0,0,0,6.6639,6.6645,6.6934,6.6935,6.7296,6.7299,0,0,0,0,0,0,0,0,0,0,0,6.6549,6.6551,6.6639,6.6646,6.6934,6.6935,6.7295,6.7299,0,0,0,0,0,0,0,0,0,0,0,6.6548,6.655,6.6553,6.6647,6.6934,6.6935,6.7294,6.708,0,0,0,0,0,0,0,0,0,0,6.6801,6.6713,6.655,6.6553,6.6648,6.6933,6.6935,6.7069,6.7093,6.7162,0,6.7221,0,6.7266,6.7323,6.7324,0,0,0,6.6649,6.6693,6.6775,6.6554,6.6651,6.6933,6.6805,6.7083,6.7109,6.7193,6.7227,6.724,6.7272,6.7325,6.7327,6.7714,6.7715,0,0,6.6633,6.6598,6.6757,6.6792,6.6748,6.6795,6.6814,6.7099,6.7133,6.7228,6.7249,6.7278,6.7327,6.733,6.7712,6.7714,0,0,0,6.6585,6.6586,6.6662,6.6777,6.683,6.6804,6.6825,6.7121,6.7148,6.7253,6.7282,6.7329,6.7334,6.771,6.7713,6.7762,0,0,0,6.6576,6.6559,6.6655,6.6636,6.6825,6.6979,6.684,6.7128,6.7162,6.728,6.7329,6.7337,6.7709,6.7712,6.7757,6.7791,0,0,0,6.6532,6.6553,6.6594,6.6634,6.6757,6.6975,6.7019,6.7137,6.718,6.7324,6.7338,6.7707,6.7711,6.7752,6.7784,6.7885,0,0,0,6.6474,6.6631,6.6594,6.6781,6.6754,6.7003,6.7018,6.7205,6.7335,6.7331,6.7709,6.7713,6.7751,6.7779,6.7879,6.7964,6.7996,0,0,6.6653,6.6651,6.6765,6.674,6.6987,6.6962,6.7217,6.7368,6.7413,6.7611,6.7621,6.7759,6.7783,6.7884,6.8183,6.8208,0,0,0,6.6809,6.689,6.6963,6.7086,6.7206,6.7313,6.7429,6.7486,6.7656,6.7508,6.7823,6.7838,6.7899,6.7941,6.7962,6.8017,6.773,6.773,6.7729,6.7011,6.7063,6.7254,6.734,6.7459,6.7579,6.768,6.7777,6.7791,6.7865,6.7924,6.81,6.8148,6.8164,6.8221,6.7972,6.7972,6.7973,6.7973,6.7279,6.7403,6.7422,6.7614,6.7667,6.7829,6.7951,6.7957,6.8116,6.8059,6.8115,6.8049,6.819,6.8243,6.7977,6.7976,6.7976,6.7975,6.7975,6.7419,6.7487,6.7554,6.7738,6.7875,6.7957,6.811,6.8152,6.8193,6.8248,6.8316,6.8316,6.8322,6.8277,6.8278,6.8279,6.8279,6.828,6.828,6.7537,6.7611,6.7735,6.7878,6.7964,6.8082,6.8205,6.8291,6.8396,6.8415,6.8416,6.8425,6.8194,6.8136,6.829,6.8288,6.8287,6.8286,6.8285,6.7791,6.7741,6.7932,6.8019,6.8192,6.8326,6.8378,6.855,6.8626,6.8701,6.8699,6.8521,6.8522,6.8505,6.8458,6.8686,6.8686,6.8686,6.8686,6.791,6.7915,6.8122,6.8257,6.8395,6.8463,6.8679,6.8778,6.8871,6.8922,6.8895,6.8835,6.8816,6.8829,6.8805,6.8762,6.9062,6.9063,6.9063,6.807,6.8091,6.8267,6.8359,6.8498,6.8616,6.8822,6.8977,6.9072,6.9079,6.8964,6.8948,6.8851,6.8817,6.8821,6.8783,6.8704,0,0]}]]